Lake Nacimiento Weather Center

Moon Phase Calendar



Lake Nacimiento Water Level
Online Cameras

 


      

Current Conditions in Lake Nacimiento
7/2/2022 1:24:52 AM

53°F
Feels Like 51
Clear
Humidity
68%
Pressure
29.97"
Wind
0.6 mph (WSW)
Dew Point
43°F
UV Index
0/10 (Low)
Visibility
6 mi

Hourly Forecast

Date & Time Sat, Jul 2
1:00 AM
Sat, Jul 2
2:00 AM
Sat, Jul 2
3:00 AM
Sat, Jul 2
4:00 AM
Sat, Jul 2
5:00 AM
Sat, Jul 2
6:00 AM
Sat, Jul 2
7:00 AM
Sat, Jul 2
8:00 AM
Sat, Jul 2
9:00 AM
Sat, Jul 2
10:00 AM
Sat, Jul 2
11:00 AM
Sat, Jul 2
12:00 PM
Sat, Jul 2
1:00 PM
Sat, Jul 2
2:00 PM
Sat, Jul 2
3:00 PM
Sat, Jul 2
4:00 PM
Sat, Jul 2
5:00 PM
Sat, Jul 2
6:00 PM
Sat, Jul 2
7:00 PM
Sat, Jul 2
8:00 PM
Sat, Jul 2
9:00 PM
Sat, Jul 2
10:00 PM
Sat, Jul 2
11:00 PM
Sun, Jul 3
12:00 AM
Sun, Jul 3
1:00 AM
Sun, Jul 3
2:00 AM
Sun, Jul 3
3:00 AM
Sun, Jul 3
4:00 AM
Sun, Jul 3
5:00 AM
Sun, Jul 3
6:00 AM
Sun, Jul 3
7:00 AM
Sun, Jul 3
8:00 AM
Sun, Jul 3
9:00 AM
Sun, Jul 3
10:00 AM
Sun, Jul 3
11:00 AM
Sun, Jul 3
12:00 PM
Sun, Jul 3
1:00 PM
Sun, Jul 3
2:00 PM
Sun, Jul 3
3:00 PM
Sun, Jul 3
4:00 PM
Sun, Jul 3
5:00 PM
Sun, Jul 3
6:00 PM
Sun, Jul 3
7:00 PM
Sun, Jul 3
8:00 PM
Sun, Jul 3
9:00 PM
Sun, Jul 3
10:00 PM
Sun, Jul 3
11:00 PM
Mon, Jul 4
12:00 AM
Condition
Clear

Clear

Clear

Clear

Clear

Clear

Clear

Clear

Clear

Clear

Clear

Clear

Clear

Clear

Clear

Clear

Clear

Clear

Clear

Clear

Clear

Clear

Clear

Clear

Clear

Clear

Clear

Clear

Clear

Clear

Clear

Clear

Clear

Clear

Clear

Clear

Clear

Clear

Clear

Clear

Clear

Clear

Clear

Clear

Clear

Clear

Clear

Clear
Temperature 53°F54°F54°F54°F54°F53°F57°F64°F70°F75°F81°F85°F86°F86°F85°F84°F83°F80°F76°F68°F61°F58°F57°F55°F54°F53°F52°F51°F51°F50°F54°F60°F66°F72°F77°F80°F83°F84°F83°F82°F81°F79°F75°F68°F62°F60°F58°F56°F
Feels Like 51°F52°F52°F52°F52°F52°F56°F62°F68°F74°F79°F82°F83°F83°F82°F81°F81°F79°F75°F67°F59°F57°F56°F54°F53°F52°F51°F50°F50°F49°F52°F58°F64°F70°F75°F80°F80°F81°F81°F80°F79°F78°F74°F67°F61°F58°F56°F54°F
Cloudiness 5%5%5%4%4%2%2%1%1%1%1%1%1%1%1%1%1%0%0%0%0%0%0%1%0%0%0%0%0%0%2%1%1%1%1%1%5%4%3%2%2%0%0%0%0%0%0%0%
Visibility 6 mi6 mi6 mi6 mi6 mi6 mi6 mi6 mi6 mi6 mi6 mi6 mi6 mi6 mi6 mi6 mi6 mi6 mi6 mi6 mi6 mi6 mi6 mi6 mi6 mi6 mi6 mi6 mi6 mi6 mi6 mi6 mi6 mi6 mi6 mi6 mi6 mi6 mi6 mi6 mi6 mi6 mi6 mi6 mi6 mi6 mi6 mi6 mi
Precipitation 0%0%0%0%0%0%0%0%0%0%0%0%0%0%0%0%0%0%0%0%0%0%0%0%0%0%0%0%0%0%0%0%0%0%0%0%0%0%0%0%0%0%0%0%0%0%0%0%
Humidity 68%69%69%70%71%72%62%49%39%32%26%23%22%23%24%24%24%28%33%48%63%70%72%76%79%83%85%88%90%91%78%59%44%34%28%24%22%22%24%25%27%29%32%42%52%54%57%59%
Dew Point 43°F44°F44°F44°F44°F43°F44°F43°F43°F42°F41°F40°F40°F41°F42°F41°F41°F42°F44°F46°F47°F47°F47°F47°F47°F47°F47°F47°F47°F46°F46°F45°F43°F41°F39°F39°F39°F39°F41°F42°F42°F42°F42°F43°F43°F42°F42°F41°F
Pressure 29.97"29.97"29.97"29.97"29.97"29.97"29.97"29.97"29.97"29.94"29.94"29.91"29.91"29.88"29.88"29.85"29.85"29.85"29.85"29.88"29.91"29.94"29.94"29.94"29.94"29.94"29.97"29.97"29.97"29.97"29.97"29.97"29.97"29.94"29.94"29.91"29.91"29.88"29.88"29.85"29.85"29.85"29.88"29.88"29.91"29.94"29.94"29.94"
Wind Speed 0.6 mph0.8 mph0.9 mph0.9 mph0.8 mph0.9 mph1.3 mph1.5 mph1.7 mph2.1 mph1.9 mph2.4 mph4.2 mph6.7 mph8.8 mph9.3 mph7.3 mph6.1 mph4.9 mph3.3 mph1.9 mph1.5 mph1.9 mph1.7 mph2.3 mph2.4 mph2.6 mph2.5 mph3 mph3.3 mph3.5 mph3.9 mph4 mph4 mph4.2 mph4.2 mph3.6 mph4.1 mph6.2 mph7.3 mph7.2 mph6.5 mph5.8 mph4.3 mph4 mph3.2 mph2.7 mph3 mph
Wind
Direction
254°
WSW
284°
WNW
326°
NW
322°
NW
322°
NW
317°
NW
313°
NW
310°
NW
313°
NW
299°
WNW
295°
WNW
272°
W
243°
WSW
234°
SW
233°
SW
239°
WSW
252°
WSW
267°
W
285°
WNW
279°
W
293°
WNW
307°
NW
22°
NNE
355°
N
15°
NNE

N
12°
NNE

N

N

N

N

N
354°
N
348°
NNW
342°
NNW
334°
NNW
308°
NW
268°
W
256°
WSW
254°
WSW
262°
W
278°
W
301°
WNW
305°
NW
318°
NW
343°
NNW
342°
NNW
346°
NNW

Daily Forecast

Date High Low Precip. Humidity
Today
Jul 2

Clear
86 °F
53 °F
0%
22%
Sunday
Jul 3

Clear
84 °F
50 °F
0%
22%
Monday
Jul 4

Clear
87 °F
53 °F
0%
24%
Tuesday
Jul 5

Clear
83 °F
58 °F
0%
38%
Wednesday
Jul 6

Clear
88 °F
57 °F
0%
31%
Thursday
Jul 7

Clear
96 °F
57 °F
0%
22%
Friday
Jul 8

Clear
102 °F
63 °F
0%
15%
Saturday
Jul 9

Clear
103 °F
65 °F
0%
13%
Sunday
Jul 10

Clear
101 °F
62 °F
0%
10%
Monday
Jul 11

Clear
92 °F
56 °F
0%
17%
Tuesday
Jul 12

Clear
87 °F
53 °F
0%
25%
Wednesday
Jul 13

Clear
85 °F
51 °F
0%
25%
Thursday
Jul 14

Clear
88 °F
53 °F
0%
23%
Friday
Jul 15

Clear
99 °F
57 °F
0%
15%
Saturday
Jul 16

Clear
108 °F
63 °F
0%
11%
Sunday
Jul 17

Clear
106 °F
70 °F
0%
12%

Temperature 8-14 Day Outlook



Precipitation 8-14 Day Outlook




Quick Links
Lake Nacimiento News
Lake Nacimiento Photos
Lake Nacimiento Videos




About Us
Contact Us
Site Map
Search Site
Advertise With Us
   
Nacimiento.USLakes.info
THE LAKE NACIMIENTO WEBSITE

Copyright 2022, Lakes Online
Privacy    |    Legal